Regional Weather Roundup
Issued by NWS Little Rock, AR

Home | Current Version | Previous Version | Text Only | Print | Product List | Glossary Off
Versions: 1 2 3 4 5 6 7 8 9 10 11 12 13 14 15 16 17 18 19 20 21 22 23 24 25 26 27 28 29 30 31 32 33 34 35 36 37 38 39 40 41 42 43 44 45 46 47 48 49 50

000
ASUS44 KLZK 011005
RWRLZK

WEATHER ROUNDUP FOR ARKANSAS
NATIONAL WEATHER SERVICE LITTLE ROCK AR
400 AM CST WED MAR 01 2017

NOTE: "FAIR" INDICATES FEW OR NO CLOUDS BELOW 12,000 FEET WITH NO
SIGNIFICANT WEATHER AND/OR OBSTRUCTIONS TO VISIBILITY.

ARZ001-003-010-029-011100-
NORTHWEST ARKANSAS

CITY           SKY/WX    TMP DP  RH WIND       PRES   REMARKS
FAYETTEVILLE   CLOUDY    48  43  82 NW18G26   29.88R
FORT SMITH     CLEAR     57  45  64 NW25G36   29.82R
HARRISON       MOCLDY    54  48  80 NW21G33   29.78R
BENTONVILLE    PTCLDY    46  39  76 N10       29.88R
ROGERS         PTCLDY    45  41  86 NW8       29.88R
SILOAM SPGS    CLEAR     45  37  76 N14G22    29.90R
HIGHFILL       CLEAR     45  41  86 NW12G24   29.87R
$$

ARZ004-005-016-011100-
NORTH CENTRAL ARKANSAS

CITY           SKY/WX    TMP DP  RH WIND       PRES   REMARKS
BATESVILLE       N/A    N/A N/A N/A MISG        N/A
FLIPPIN        CLOUDY    63  46  55 W15       29.69R
MTN HOME       MOCLDY    61  49  64 W6        29.70R
$$

ARZ040-041-011100-
WEST CENTRAL ARKANSAS

CITY           SKY/WX    TMP DP  RH WIND       PRES   REMARKS
MENA           PTCLDY    68  68 100 SW7       29.81R
MOUNT IDA      MOCLDY    67  58  72 W6        29.77R
$$

ARZ009-017-025-026-028-011100-
NORTHEAST ARKANSAS

CITY           SKY/WX    TMP DP  RH WIND       PRES   REMARKS
CORNING        CLOUDY    66  64  94 SW38G58   29.71R THUNDER FOG
JONESBORO      TSTM      58  53  84 W25G54    29.81R
NEWPORT        TSTM      56  53  90 MISG      29.78R
WALNUT RIDGE   MOCLDY    59  52  77 W18G46    29.78R
BLYTHEVILLE    CLOUDY    71  65  81 SW28G36   29.73R
$$

ARZ022-023-033-042-044-011100-
CENTRAL ARKANSAS

CITY           SKY/WX    TMP DP  RH WIND       PRES   REMARKS
LITTLE ROCK    CLOUDY    70  67  90 SW12      29.78R
N LITTLE ROCK    N/A     65  54  69 SW9G21    29.79R
JACKSONVILLE   DRIZZLE   66  54  63 NW12      29.77R
SEARCY         CLOUDY    59  56  89 NW9G20    29.80R
HOT SPRINGS    CLOUDY    71  66  84 W10G20    29.79R
RUSSELLVILLE   CLOUDY    63  57  81 SW8       29.74F
CLINTON          N/A     61  54  77 MISG      29.74F
$$

ARZ036-011100-
EAST ARKANSAS

CITY           SKY/WX    TMP DP  RH WIND       PRES   REMARKS
WEST MEMPHIS   CLOUDY    70  66  87 S13G23    29.76R
$$

ARZ050-053-066-070-073-011100-
SOUTHWEST ARKANSAS

CITY           SKY/WX    TMP DP  RH WIND       PRES   REMARKS
ARKADELPHIA    CLOUDY    72  67  84 SW13      29.82R
CAMDEN         CLOUDY    73  64  73 SW12      29.79R
TEXARKANA      CLOUDY    71  67  87 SW15G24   29.82R
EL DORADO      CLOUDY    72  66  81 S17G25    29.82F
DE QUEEN       CLOUDY    70  67  90 SW8       29.78R
$$

ARZ056-057-069-011100-
SOUTHEAST ARKANSAS

CITY           SKY/WX    TMP DP  RH WIND       PRES   REMARKS
PINE BLUFF     CLOUDY    71  66  84 SW13G22   29.79R
STUTTGART      CLOUDY    72  61  68 SW17      29.79R
MONTICELLO     CLOUDY    72  66  81 SW14G24   29.81S

$$





USA.gov is the U.S. government's official web portal to all federal, state and local government web resources and services.